Sterling, IL

5:48 AM CDT on September 20, 2019 (GMT -0500)
Whiteside County-Bittorf

Weather History for KSQI - July, 2019

Change the Weather History Date:

Thursday, July 11, 2019

  Actual Average Record
Temperature  
Mean Temperature 75 °F -  
Max Temperature 84 °F 81 °F 89 °F (2011)
Min Temperature 66 °F 59 °F 51 °F (1996)
Cooling Degree Days 10    
Growing Degree Days 25 (Base 50)    
Moisture  
Dew Point 66 °F    
Average Humidity 74    
Maximum Humidity 97    
Minimum Humidity 49    
Precipitation  
Precipitation 0.00 in - - ()
Sea Level Pressure  
Sea Level Pressure 29.55 in    
Wind  
Wind Speed 5 mph (NNW)    
Max Wind Speed 13 mph    
Max Gust Speed 17 mph    
Visibility 10 miles    
Events      
Averages and records for this station are not official NWS values.
T = Trace of Precipitation, MM = Missing Value Source: NWS Daily Summary

Daily Weather History Graph

Daily Weather History Graph

Search for Another Location

Airport or City:

Astronomy

Jul. 11, 2019 Rise Set
Actual Time 5:34 AM CDT 8:34 PM CDT
Civil Twilight 5:00 AM CDT 9:07 PM CDT
Nautical Twilight 4:17 AM CDT 9:49 PM CDT
Astronomical Twilight 3:27 AM CDT 10:39 PM CDT
Moon 3:45 PM CDT (7/11) 1:47 AM CDT (7/11)
Length of Visible Light 16h 06m
Length of Day
15h 00m
Waxing Gibbous, 74% of the Moon is Illuminated
Jul 11
Waxing Gibbous
Jul 16
Full
Jul 24
Last Quarter
Jul 31
New
Aug 7
First Quarter

Hourly Weather History & Observations

Time (CDT) Temp. Heat Index Dew Point Humidity Pressure Visibility Wind Dir Wind Speed Gust Speed Precip Events Conditions
12:56 AM 69.1 °F - 66.0 °F 90% 29.52 in 10.0 mi WNW 5.8 mph - N/A   Clear
1:56 AM 69.1 °F - 66.0 °F 90% 29.52 in 10.0 mi West 3.5 mph - N/A   Clear
2:56 AM 66.9 °F - 66.0 °F 97% 29.51 in 8.0 mi Calm Calm - N/A   Partly Cloudy
3:56 AM 66.9 °F - 66.0 °F 97% 29.52 in 10.0 mi SW 3.5 mph - N/A   Mostly Cloudy
4:56 AM 66.9 °F - 64.9 °F 93% 29.52 in 10.0 mi Calm Calm - N/A   Clear
5:56 AM 66.0 °F - 64.9 °F 96% 29.53 in 10.0 mi West 4.6 mph - N/A   Clear
6:56 AM 70.0 °F - 66.9 °F 90% 29.54 in 10.0 mi West 4.6 mph - N/A   Clear
7:56 AM 73.0 °F - 68.0 °F 84% 29.56 in 10.0 mi North 8.1 mph - N/A   Partly Cloudy
8:56 AM 75.9 °F - 68.0 °F 76% 29.57 in 10.0 mi NNE 9.2 mph - N/A   Partly Cloudy
9:56 AM 78.1 °F - 68.0 °F 71% 29.57 in 10.0 mi NNW 8.1 mph - N/A   Clear
10:56 AM 80.1 °F 82.7 °F 68.0 °F 67% 29.57 in 8.0 mi NNE 10.4 mph - N/A   Partly Cloudy
11:56 AM 82.9 °F 85.8 °F 68.0 °F 60% 29.57 in 10.0 mi North - - N/A   Scattered Clouds
12:56 PM 82.0 °F 84.1 °F 66.0 °F 58% 29.57 in 10.0 mi North 10.4 mph - N/A   Mostly Cloudy
1:56 PM 84.0 °F 87.0 °F 68.0 °F 58% 29.57 in 10.0 mi North 12.7 mph 17.3 mph N/A   Scattered Clouds
2:56 PM 84.0 °F 86.5 °F 66.9 °F 56% 29.57 in 10.0 mi North 9.2 mph - N/A   Scattered Clouds
3:56 PM 84.0 °F 86.5 °F 66.9 °F 56% 29.56 in 10.0 mi North 11.5 mph - N/A   Partly Cloudy
4:56 PM 84.0 °F 85.4 °F 64.0 °F 51% 29.55 in 10.0 mi NNE 10.4 mph - N/A   Partly Cloudy
5:56 PM 82.9 °F 83.7 °F 62.1 °F 49% 29.55 in 10.0 mi North 6.9 mph - N/A   Clear
6:56 PM 81.0 °F 81.9 °F 62.1 °F 52% 29.55 in 10.0 mi NNE 5.8 mph - N/A   Clear
7:56 PM 78.1 °F - 63.0 °F 60% 29.55 in 10.0 mi North 4.6 mph - N/A   Clear
8:56 PM 72.0 °F - 64.9 °F 78% 29.56 in 9.0 mi Calm Calm - N/A   Clear
9:56 PM 69.1 °F - 64.0 °F 84% 29.57 in 10.0 mi NNE 4.6 mph - 0.00 in   Clear
10:56 PM 69.1 °F - 64.0 °F 84% 29.57 in 9.0 mi North 3.5 mph - N/A   Clear
11:56 PM 66.0 °F - 63.0 °F 90% 29.57 in 10.0 mi Calm Calm - N/A   Clear